Weather Roundup
Issued by NWS

Home | Current Version | Previous Version | Text Only | Print | Product List | Glossary On
Versions: 1 2 3 4 5 6 7 8 9 10 11 12 13 14 15 16 17 18 19 20 21 22 23 24 25 26 27 28 29 30 31 32 33 34 35 36 37 38 39 40 41 42 43 44 45 46 47 48 49 50
000
NZUS93 KARX 210210
HRRWXR

CURRENT HOURLY OBSERVATIONS ACROSS
MUCH OF THE UPPER MISSISSIPPI VALLEY
NATIONAL WEATHER SERVICE LA CROSSE WI
900 PM CDT WED AUG 20 2014


...SOUTHEAST MINNESOTA...


CITY           SKY/WX    TMP DP  RH WIND       PRES   REMARKS
ROCHESTER      PTCLDY    71  67  87 S5        29.90R
ROCHESTER/MAYO FAIR      76  66  71 SE6       29.89R
WINONA         PTCLDY    73  68  83 CALM      29.89R
AUSTIN         MOCLDY    70  66  88 E3        29.88S
ALBERT LEA     CLOUDY    73  68  83 SE6       29.87S
DODGE CENTER   PTCLDY    72  68  88 S7        29.89R
PRESTON        PTCLDY    72  71  97 S6        29.91R
OWATONNA       MOCLDY    75  68  78 SE6       29.87R
FARIBAULT      MOCLDY    77  66  69 SE5       29.86R
$$

...ELSEWHERE IN MINNESOTA...


CITY           SKY/WX    TMP DP  RH WIND       PRES   REMARKS
MINNEAPOLIS    MOCLDY    76  66  71 E13       29.85S
INTNL FALLS    PTCLDY    63  59  87 SE5       29.89R
DULUTH         PTCLDY    62  56  80 E6        29.93R
RED WING       PTCLDY    75  64  69 E12       29.86S
REDWOOD FALLS  CLOUDY    77  69  76 S10       29.81R
MANKATO        MOCLDY    75  64  69 SE8       29.84S
WORTHINGTON    CLOUDY    70  12  11 E6        29.84R
FAIRMONT       CLOUDY    72  64  78 SE5       29.85R
$$

...SOUTHWEST WISCONSIN...


CITY           SKY/WX    TMP DP  RH WIND       PRES   REMARKS
LA CROSSE      PTCLDY    77  68  73 E3        29.88R
PRAIRIE DU CHI MOCLDY    72  65  80 CALM      29.89S
BOSCOBEL       MOCLDY    74  67  78 S3        29.90R
LONE ROCK      MOCLDY    79  70  74 W3        29.90R
PLATTEVILLE    MOCLDY    70  68  91 CALM      29.93R
FORT MC COY    MOCLDY    72  65  79 CALM      29.92R
CAMP DOUGLAS   MOCLDY    68  68 100 CALM      29.92R
VIROQUA        FAIR      73  68  84 S3        29.92R
WIS DELLS      MOCLDY    73  65  77 NE7       29.91R
$$

...ELSEWHERE IN WISCONSIN...


CITY           SKY/WX    TMP DP  RH WIND       PRES   REMARKS
MILWAUKEE      MOCLDY    68  64  87 E3        29.92R
MADISON        CLOUDY    75  68  78 CALM      29.89S
GREEN BAY      CLEAR     64  62  93 CALM      29.93R
EAU CLAIRE     PTCLDY    68  64  87 E5        29.91R
BLACK RVR FLS  FAIR      69  68  98 CALM      29.91R
MEDFORD        PTCLDY    59  59 100 CALM      29.95R FOG
WAUSAU         CLEAR     66  62  87 CALM      29.93R
WIS RAPIDS     PTCLDY    65  62  90 E3        29.94R
MARSHFIELD     MOCLDY    67  62  84 CALM      29.93R
RICE LAKE      PTCLDY    66  61  83 E3        29.93R
$$

...NORTHEAST IOWA...


CITY           SKY/WX    TMP DP  RH WIND       PRES   REMARKS
WATERLOO       MOCLDY    70  67  90 E6        29.86R
DUBUQUE        CLOUDY    70  68  93 CALM      29.92R
DECORAH        PTCLDY    72  70  94 S5        29.89R
MASON CITY     CLOUDY    71  69  93 SE6       29.89R
CHARLES CITY   MOCLDY    70  68  94 SE5       29.89R
OELWEIN        MOCLDY    70  68  94 E8        29.89S
$$

...ELSEWHERE IN IOWA...


CITY           SKY/WX    TMP DP  RH WIND       PRES   REMARKS
DES MOINES     PTCLDY    78  73  84 S5        29.82S
IOWA CITY      PTCLDY    73  70  90 CALM      29.88S
FORT DODGE     MOCLDY    72  70  94 E7        29.85R
MARSHALLTOWN   MOCLDY    70  69  97 E6        29.85R
CEDAR RAPIDS   MOCLDY    70  69  97 E7        29.86F
$$

...NORTHERN ILLINOIS...


CITY           SKY/WX    TMP DP  RH WIND       PRES   REMARKS
CHICAGO-OHARE  PTCLDY    78  67  68 W10       29.91R
DUPAGE         PTCLDY    75  69  81 W12       29.93R
CHICAGO-MIDWAY PTCLDY    80  71  74 SW13      29.91R
MOLINE         PTCLDY    72  68  87 SE3       29.88F
ROCKFORD       MOCLDY    75  68  78 CALM      29.91F
STERLING       MOCLDY    72  66  83 S3        29.90F
PEORIA         PTCLDY    76  71  85 SE3       29.92R
$$

NOTE: "FAIR" INDICATES FEW OR NO CLOUDS BELOW 12,000 FEET WITH NO
SIGNIFICANT WEATHER AND/OR OBSTRUCTIONS TO VISIBILITY. WIND
SPEEDS ARE IN MILES-PER-HOUR.



USA.gov is the U.S. government's official web portal to all federal, state and local government web resources and services.